DLH5RM EIDW-EDDF

Flight info

Callsign DLH5RM
Flight time 1h 37m
Altitude 35000
Route ENDEQ3J ENDEQ Q36 ALAVA Z195 MALUD UL975 WAL M16 DOLAS DCT NAVPI DCT NOLRU DCT DIXAT DIXAT1A
Aircraft A321/M-SDE2E3FGILORWXYZ/H

Departure

Time 2026-05-05 16:51
Airport Dublin Airport (EIDW)

Arrival

Time 2026-05-05 18:29
Airport Frankfurt Main Airport (EDDF)
Time Latitude Longitude Altitude Speed Heading
2026-05-05 16:15 53.42623 -6.24700 211 ft 0 kts 90°
2026-05-05 16:38 53.42623 -6.24719 216 ft 4 kts 85°
2026-05-05 16:39 53.42618 -6.24762 211 ft 4 kts 66°
2026-05-05 16:39 53.42604 -6.24799 214 ft 4 kts 38°
2026-05-05 16:39 53.42581 -6.24818 212 ft 3 kts 11°
2026-05-05 16:39 53.42558 -6.24824 211 ft 4 kts 358°
2026-05-05 16:40 53.42531 -6.24818 211 ft 4 kts 340°
2026-05-05 16:40 53.42507 -6.24800 211 ft 3 kts 337°
2026-05-05 16:40 53.42502 -6.24797 211 ft 0 kts 338°
2026-05-05 16:42 53.42509 -6.24801 211 ft 2 kts 338°
2026-05-05 16:42 53.42543 -6.24825 217 ft 8 kts 336°
2026-05-05 16:42 53.42593 -6.24862 214 ft 8 kts 336°
2026-05-05 16:43 53.42648 -6.24906 212 ft 9 kts 329°
2026-05-05 16:43 53.42707 -6.24969 216 ft 11 kts 327°
2026-05-05 16:43 53.42766 -6.25032 213 ft 10 kts 328°
2026-05-05 16:43 53.42793 -6.25136 211 ft 11 kts 273°
2026-05-05 16:44 53.42818 -6.25257 211 ft 11 kts 324°
2026-05-05 16:44 53.42893 -6.25314 214 ft 12 kts 336°
2026-05-05 16:44 53.42975 -6.25374 216 ft 13 kts 336°
2026-05-05 16:44 53.43063 -6.25439 215 ft 14 kts 336°
2026-05-05 16:45 53.43157 -6.25505 212 ft 15 kts 338°
2026-05-05 16:45 53.43258 -6.25579 211 ft 16 kts 336°
2026-05-05 16:45 53.43355 -6.25650 213 ft 11 kts 336°
2026-05-05 16:45 53.43409 -6.25610 211 ft 10 kts 84°
2026-05-05 16:46 53.43403 -6.25485 211 ft 11 kts 95°
2026-05-05 16:46 53.43395 -6.25341 211 ft 15 kts 95°
2026-05-05 16:46 53.43384 -6.25141 218 ft 18 kts 95°
2026-05-05 16:46 53.43373 -6.24927 214 ft 19 kts 95°
2026-05-05 16:47 53.43361 -6.24705 219 ft 19 kts 95°
2026-05-05 16:47 53.43349 -6.24474 211 ft 20 kts 94°
2026-05-05 16:47 53.43335 -6.24236 211 ft 21 kts 96°
2026-05-05 16:47 53.43321 -6.23999 211 ft 17 kts 95°
2026-05-05 16:48 53.43338 -6.23865 213 ft 12 kts 32°
2026-05-05 16:48 53.43425 -6.23849 211 ft 14 kts
2026-05-05 16:48 53.43473 -6.23843 210 ft 4 kts 359°
2026-05-05 16:48 53.43485 -6.23886 210 ft 2 kts 278°
2026-05-05 16:49 53.43485 -6.23888 210 ft 0 kts 278°
2026-05-05 16:50 53.43485 -6.23893 210 ft 3 kts 278°
2026-05-05 16:50 53.43506 -6.24244 218 ft 66 kts 275°
2026-05-05 16:51 53.43570 -6.25408 210 ft 132 kts 275°
2026-05-05 16:51 53.43673 -6.27209 325 ft 171 kts 277°
2026-05-05 16:51 53.43780 -6.29124 1120 ft 164 kts 279°
2026-05-05 16:51 53.44254 -6.30876 1638 ft 173 kts 316°
2026-05-05 16:52 53.45140 -6.32383 1962 ft 192 kts 315°
2026-05-05 16:52 53.46107 -6.34079 2265 ft 208 kts 326°
2026-05-05 16:52 53.47428 -6.35058 2790 ft 210 kts 351°
2026-05-05 16:52 53.48878 -6.35111 3483 ft 208 kts
2026-05-05 16:53 53.50328 -6.35008 4163 ft 209 kts
2026-05-05 16:53 53.51691 -6.34157 4769 ft 216 kts 36°
2026-05-05 16:53 53.52566 -6.32038 5152 ft 237 kts 71°
2026-05-05 16:53 53.52703 -6.29115 5375 ft 264 kts 88°
2026-05-05 16:54 53.52655 -6.25965 5922 ft 274 kts 90°
2026-05-05 16:54 53.52571 -6.22735 6605 ft 279 kts 91°
2026-05-05 16:54 53.52483 -6.19463 7291 ft 282 kts 90°
2026-05-05 16:54 53.52400 -6.16158 8007 ft 284 kts 90°
2026-05-05 16:55 53.52327 -6.12827 8700 ft 287 kts 90°
2026-05-05 16:55 53.52263 -6.09458 9382 ft 290 kts 90°
2026-05-05 16:55 53.52045 -6.06069 10039 ft 295 kts 102°
2026-05-05 16:55 53.51555 -6.02648 10354 ft 311 kts 102°
2026-05-05 16:56 53.51030 -5.98997 10481 ft 332 kts 102°
2026-05-05 16:56 53.50476 -5.95155 10810 ft 343 kts 103°
2026-05-05 16:56 53.49908 -5.91238 11352 ft 347 kts 103°
2026-05-05 16:56 53.49333 -5.87279 11925 ft 351 kts 103°
2026-05-05 16:57 53.48754 -5.83282 12507 ft 354 kts 102°
2026-05-05 16:57 53.48208 -5.79230 13071 ft 358 kts 101°
2026-05-05 16:57 53.47692 -5.75126 13645 ft 361 kts 101°
2026-05-05 16:57 53.47185 -5.70972 14167 ft 365 kts 101°
2026-05-05 16:58 53.46677 -5.66787 14682 ft 368 kts 101°
2026-05-05 16:58 53.46159 -5.62565 15196 ft 371 kts 101°
2026-05-05 16:58 53.45628 -5.58316 15715 ft 374 kts 101°
2026-05-05 16:58 53.45084 -5.54031 16228 ft 377 kts 102°
2026-05-05 16:59 53.44597 -5.49693 16730 ft 380 kts 96°
2026-05-05 16:59 53.44430 -5.45211 16917 ft 392 kts 92°
2026-05-05 16:59 53.44316 -5.40566 17055 ft 405 kts 91°
2026-05-05 16:59 53.44206 -5.35793 17269 ft 414 kts 91°
2026-05-05 17:00 53.44094 -5.30943 17662 ft 418 kts 91°
2026-05-05 17:00 53.43976 -5.26059 18082 ft 421 kts 92°
2026-05-05 17:00 53.43852 -5.21138 18484 ft 424 kts 92°
2026-05-05 17:00 53.43721 -5.16183 18858 ft 427 kts 92°
2026-05-05 17:01 53.43579 -5.11194 19205 ft 430 kts 92°
2026-05-05 17:01 53.43424 -5.06168 19573 ft 433 kts 93°
2026-05-05 17:01 53.43260 -5.01119 19951 ft 436 kts 93°
2026-05-05 17:01 53.43089 -4.96030 20332 ft 438 kts 93°
2026-05-05 17:02 53.42916 -4.90917 20703 ft 441 kts 93°
2026-05-05 17:02 53.42744 -4.85764 21076 ft 444 kts 93°
2026-05-05 17:02 53.42571 -4.80590 21443 ft 446 kts 93°
2026-05-05 17:02 53.42397 -4.75381 21808 ft 449 kts 94°
2026-05-05 17:03 53.42219 -4.70135 22159 ft 452 kts 94°
2026-05-05 17:03 53.42038 -4.64862 22511 ft 454 kts 94°
2026-05-05 17:03 53.41858 -4.59566 22867 ft 456 kts 94°
2026-05-05 17:03 53.41673 -4.54248 23240 ft 458 kts 94°
2026-05-05 17:04 53.41485 -4.48894 23585 ft 461 kts 94°
2026-05-05 17:04 53.41294 -4.43523 23879 ft 463 kts 94°
2026-05-05 17:04 53.41097 -4.38130 24179 ft 465 kts 94°
2026-05-05 17:04 53.40900 -4.32772 24477 ft 467 kts 94°
2026-05-05 17:05 53.40697 -4.27330 24775 ft 469 kts 94°
2026-05-05 17:05 53.40492 -4.21865 25071 ft 471 kts 94°
2026-05-05 17:05 53.40279 -4.16377 25355 ft 473 kts 95°
2026-05-05 17:05 53.40059 -4.10869 25640 ft 475 kts 95°
2026-05-05 17:06 53.39837 -4.05349 25926 ft 476 kts 95°
2026-05-05 17:06 53.39616 -3.99804 26187 ft 478 kts 94°
2026-05-05 17:06 53.39651 -3.94225 26446 ft 480 kts 86°
2026-05-05 17:06 53.39946 -3.88647 26694 ft 482 kts 85°
2026-05-05 17:07 53.40241 -3.83042 26932 ft 483 kts 85°
2026-05-05 17:07 53.40531 -3.77431 27156 ft 485 kts 85°
2026-05-05 17:07 53.40813 -3.71791 27371 ft 486 kts 86°
2026-05-05 17:07 53.41089 -3.66149 27646 ft 486 kts 86°
2026-05-05 17:08 53.41276 -3.60506 27949 ft 484 kts 91°
2026-05-05 17:08 53.41084 -3.54886 28286 ft 482 kts 95°
2026-05-05 17:08 53.40829 -3.49303 28646 ft 480 kts 95°
2026-05-05 17:08 53.40575 -3.43737 28974 ft 478 kts 95°
2026-05-05 17:09 53.40325 -3.38191 29290 ft 477 kts 95°
2026-05-05 17:09 53.40078 -3.32649 29600 ft 477 kts 95°
2026-05-05 17:09 53.39831 -3.27115 29916 ft 476 kts 95°
2026-05-05 17:09 53.39580 -3.21593 30206 ft 475 kts 95°
2026-05-05 17:10 53.39323 -3.16080 30460 ft 474 kts 95°
2026-05-05 17:10 53.39068 -3.10583 30713 ft 474 kts 95°
2026-05-05 17:10 53.38843 -3.05080 30972 ft 472 kts 95°
2026-05-05 17:10 53.38641 -2.99600 31272 ft 470 kts 94°
2026-05-05 17:11 53.38449 -2.94131 31528 ft 470 kts 94°
2026-05-05 17:11 53.38254 -2.88675 31766 ft 469 kts 94°
2026-05-05 17:11 53.38053 -2.83217 32022 ft 469 kts 94°
2026-05-05 17:11 53.37845 -2.77776 32230 ft 469 kts 94°
2026-05-05 17:12 53.37632 -2.72336 32479 ft 468 kts 95°
2026-05-05 17:12 53.37415 -2.66902 32718 ft 467 kts 95°
2026-05-05 17:12 53.37192 -2.61479 32945 ft 467 kts 95°
2026-05-05 17:12 53.36966 -2.56060 33195 ft 466 kts 95°
2026-05-05 17:13 53.36740 -2.50669 33499 ft 463 kts 95°
2026-05-05 17:13 53.36516 -2.45300 33794 ft 461 kts 95°
2026-05-05 17:13 53.36292 -2.39943 33993 ft 461 kts 95°
2026-05-05 17:13 53.36067 -2.34592 34032 ft 461 kts 95°
2026-05-05 17:14 53.35479 -2.23930 34029 ft 460 kts 101°
2026-05-05 17:14 53.34396 -2.13387 34030 ft 460 kts 100°
2026-05-05 17:15 53.33306 -2.02841 34030 ft 460 kts 100°
2026-05-05 17:15 53.32213 -1.92319 34025 ft 460 kts 101°
2026-05-05 17:16 53.31106 -1.81793 34010 ft 459 kts 101°
2026-05-05 17:16 53.29993 -1.71269 34011 ft 459 kts 101°
2026-05-05 17:17 53.28873 -1.60760 34008 ft 460 kts 101°
2026-05-05 17:17 53.27743 -1.50259 34009 ft 458 kts 101°
2026-05-05 17:18 53.26612 -1.39818 34008 ft 455 kts 101°
2026-05-05 17:18 53.25477 -1.29416 34008 ft 455 kts 101°
2026-05-05 17:19 53.24330 -1.19023 34000 ft 455 kts 101°
2026-05-05 17:19 53.23168 -1.08649 34002 ft 454 kts 101°
2026-05-05 17:20 53.22002 -0.98288 34001 ft 455 kts 102°
2026-05-05 17:20 53.20825 -0.87905 34001 ft 456 kts 102°
2026-05-05 17:21 53.19645 -0.77512 34003 ft 456 kts 102°
2026-05-05 17:22 53.17851 -0.61941 34000 ft 456 kts 102°
2026-05-05 17:22 53.16641 -0.51564 34002 ft 456 kts 102°
2026-05-05 17:23 53.15419 -0.41195 34004 ft 456 kts 103°
2026-05-05 17:23 53.14187 -0.30816 34002 ft 456 kts 102°
2026-05-05 17:24 53.12955 -0.20454 34002 ft 456 kts 102°
2026-05-05 17:24 53.11720 -0.10099 34002 ft 456 kts 103°
2026-05-05 17:25 53.10466 0.00246 34005 ft 456 kts 103°
2026-05-05 17:25 53.09194 0.10617 34002 ft 459 kts 103°
2026-05-05 17:26 53.07910 0.21023 34002 ft 459 kts 103°
2026-05-05 17:26 53.06618 0.31427 34000 ft 459 kts 103°
2026-05-05 17:27 53.05325 0.41822 33993 ft 459 kts 103°
2026-05-05 17:27 53.04018 0.52223 33985 ft 460 kts 104°
2026-05-05 17:28 53.02696 0.62636 33990 ft 461 kts 104°
2026-05-05 17:28 53.01365 0.73064 33989 ft 462 kts 104°
2026-05-05 17:29 53.00024 0.83485 33983 ft 462 kts 105°
2026-05-05 17:29 52.98664 0.93911 33986 ft 462 kts 105°
2026-05-05 17:30 52.96954 1.04129 33979 ft 458 kts 114°
2026-05-05 17:30 52.94719 1.14019 33984 ft 458 kts 114°
2026-05-05 17:31 52.92482 1.23899 33982 ft 458 kts 114°
2026-05-05 17:31 52.90235 1.33762 33980 ft 457 kts 114°
2026-05-05 17:32 52.87981 1.43606 33977 ft 457 kts 114°
2026-05-05 17:32 52.86103 1.51783 33961 ft 457 kts 114°
2026-05-05 17:33 52.83840 1.61628 33978 ft 458 kts 114°
2026-05-05 17:33 52.81567 1.71468 33973 ft 458 kts 114°
2026-05-05 17:34 52.79270 1.81291 33974 ft 458 kts 114°
2026-05-05 17:34 52.76971 1.91100 33974 ft 458 kts 114°
2026-05-05 17:35 52.74674 2.00905 33953 ft 458 kts 114°
2026-05-05 17:35 52.72376 2.10642 33969 ft 453 kts 115°
2026-05-05 17:36 52.70078 2.20305 33972 ft 452 kts 115°
2026-05-05 17:36 52.67777 2.29957 33967 ft 452 kts 115°
2026-05-05 17:37 52.65477 2.39593 33967 ft 452 kts 115°
2026-05-05 17:37 52.63167 2.49225 33967 ft 452 kts 115°
2026-05-05 17:38 52.60856 2.58806 33964 ft 449 kts 115°
2026-05-05 17:38 52.58542 2.68329 33961 ft 448 kts 115°
2026-05-05 17:39 52.56222 2.77834 33961 ft 448 kts 115°
2026-05-05 17:39 52.53848 2.87290 33959 ft 447 kts 117°
2026-05-05 17:40 52.51215 2.96515 33959 ft 446 kts 120°
2026-05-05 17:40 52.48471 3.05632 33954 ft 445 kts 120°
2026-05-05 17:41 52.45759 3.14760 33990 ft 445 kts 120°
2026-05-05 17:41 52.44423 3.19329 34200 ft 445 kts 120°
2026-05-05 17:41 52.43089 3.23901 34397 ft 444 kts 120°
2026-05-05 17:41 52.41755 3.28469 34567 ft 445 kts 120°
2026-05-05 17:42 52.40414 3.33034 34739 ft 445 kts 120°
2026-05-05 17:42 52.39067 3.37593 34892 ft 445 kts 120°
2026-05-05 17:42 52.37714 3.42158 34942 ft 446 kts 120°
2026-05-05 17:43 52.35002 3.51291 34940 ft 446 kts 120°
2026-05-05 17:43 52.32294 3.60411 34937 ft 445 kts 120°
2026-05-05 17:44 52.29597 3.69450 34939 ft 445 kts 120°
2026-05-05 17:44 52.26853 3.78593 34934 ft 445 kts 120°
2026-05-05 17:45 52.24134 3.87606 34940 ft 446 kts 120°
2026-05-05 17:45 52.21387 3.96676 34914 ft 446 kts 120°
2026-05-05 17:46 52.18640 4.05735 34937 ft 446 kts 120°
2026-05-05 17:46 52.15888 4.14783 34931 ft 445 kts 120°
2026-05-05 17:47 52.13133 4.23806 34935 ft 445 kts 120°
2026-05-05 17:47 52.10368 4.32817 34933 ft 445 kts 120°
2026-05-05 17:48 52.07596 4.41811 34931 ft 445 kts 120°
2026-05-05 17:48 52.04822 4.50796 34932 ft 445 kts 120°
2026-05-05 17:49 52.02036 4.59758 34918 ft 445 kts 120°
2026-05-05 17:49 51.99249 4.68714 34917 ft 444 kts 120°
2026-05-05 17:50 51.96460 4.77661 34921 ft 444 kts 120°
2026-05-05 17:50 51.93663 4.86595 34921 ft 444 kts 120°
2026-05-05 17:51 51.90853 4.95504 34924 ft 444 kts 120°
2026-05-05 17:51 51.88040 5.04385 34913 ft 443 kts 120°
2026-05-05 17:52 51.85233 5.13248 34904 ft 443 kts 120°
2026-05-05 17:52 51.82413 5.22101 34903 ft 442 kts 121°
2026-05-05 17:53 51.79591 5.30934 34918 ft 442 kts 121°
2026-05-05 17:53 51.76760 5.39753 34889 ft 442 kts 121°
2026-05-05 17:54 51.73930 5.48558 34903 ft 442 kts 121°
2026-05-05 17:54 51.71094 5.57350 34904 ft 442 kts 121°
2026-05-05 17:55 51.68248 5.66133 34912 ft 442 kts 121°
2026-05-05 17:55 51.65398 5.74889 34915 ft 441 kts 121°
2026-05-05 17:56 51.62542 5.83620 34909 ft 440 kts 121°
2026-05-05 17:56 51.59693 5.92319 34891 ft 439 kts 121°
2026-05-05 17:57 51.56862 6.00986 34897 ft 438 kts 121°
2026-05-05 17:57 51.54027 6.09629 34894 ft 437 kts 122°
2026-05-05 17:58 51.51171 6.18231 34889 ft 436 kts 122°
2026-05-05 17:58 51.48705 6.27165 34883 ft 439 kts 115°
2026-05-05 17:59 51.46475 6.36280 34886 ft 439 kts 115°
2026-05-05 17:59 51.44244 6.45376 34887 ft 438 kts 115°
2026-05-05 18:00 51.42005 6.54458 34882 ft 438 kts 115°
2026-05-05 18:00 51.39753 6.63513 34879 ft 438 kts 116°
2026-05-05 18:01 51.37499 6.72560 34872 ft 437 kts 115°
2026-05-05 18:02 51.33166 6.89877 34869 ft 437 kts 115°
2026-05-05 18:02 51.30901 6.98872 34886 ft 436 kts 116°
2026-05-05 18:03 51.28564 7.07797 34813 ft 433 kts 121°
2026-05-05 18:03 51.26979 7.11878 33944 ft 434 kts 131°
2026-05-05 18:03 51.24983 7.15335 33456 ft 422 kts 140°
2026-05-05 18:03 51.22713 7.18151 33289 ft 405 kts 150°
2026-05-05 18:04 51.20295 7.20302 33096 ft 393 kts 153°
2026-05-05 18:04 51.17885 7.22290 32682 ft 387 kts 154°
2026-05-05 18:04 51.15485 7.24181 32168 ft 383 kts 155°
2026-05-05 18:04 51.13090 7.26021 31634 ft 381 kts 155°
2026-05-05 18:05 51.10709 7.27851 31111 ft 379 kts 154°
2026-05-05 18:05 51.08357 7.29717 30591 ft 377 kts 153°
2026-05-05 18:05 51.06025 7.31622 30079 ft 376 kts 153°
2026-05-05 18:05 51.03710 7.33541 29511 ft 374 kts 153°
2026-05-05 18:06 51.01412 7.35453 28956 ft 372 kts 153°
2026-05-05 18:06 50.99863 7.36740 28600 ft 370 kts 153°
2026-05-05 18:06 50.96866 7.39228 27696 ft 365 kts 153°
2026-05-05 18:06 50.94629 7.41079 26953 ft 361 kts 153°
2026-05-05 18:07 50.92406 7.42909 26226 ft 358 kts 153°
2026-05-05 18:07 50.90205 7.44711 25527 ft 355 kts 153°
2026-05-05 18:07 50.88024 7.46494 24859 ft 352 kts 153°
2026-05-05 18:07 50.85858 7.48262 24176 ft 349 kts 153°
2026-05-05 18:08 50.83714 7.50014 23535 ft 346 kts 153°
2026-05-05 18:08 50.81584 7.51755 22766 ft 343 kts 153°
2026-05-05 18:08 50.79476 7.53475 22014 ft 340 kts 153°
2026-05-05 18:08 50.77385 7.55177 21285 ft 337 kts 153°
2026-05-05 18:09 50.75312 7.56859 20592 ft 334 kts 153°
2026-05-05 18:09 50.73253 7.58528 19924 ft 332 kts 153°
2026-05-05 18:09 50.71202 7.60193 19458 ft 330 kts 153°
2026-05-05 18:09 50.69166 7.61845 19021 ft 328 kts 153°
2026-05-05 18:10 50.67136 7.63488 18567 ft 327 kts 153°
2026-05-05 18:10 50.65119 7.65121 18116 ft 325 kts 153°
2026-05-05 18:10 50.63111 7.66745 17630 ft 324 kts 153°
2026-05-05 18:10 50.61116 7.68356 17139 ft 322 kts 153°
2026-05-05 18:11 50.59128 7.69961 16654 ft 320 kts 153°
2026-05-05 18:11 50.57153 7.71554 16179 ft 318 kts 153°
2026-05-05 18:11 50.55186 7.73137 15715 ft 317 kts 153°
2026-05-05 18:11 50.53231 7.74711 15250 ft 315 kts 153°
2026-05-05 18:12 50.51289 7.76275 14812 ft 313 kts 153°
2026-05-05 18:12 50.49355 7.77832 14371 ft 311 kts 153°
2026-05-05 18:12 50.47434 7.79374 13939 ft 310 kts 154°
2026-05-05 18:12 50.45519 7.80907 13511 ft 308 kts 154°
2026-05-05 18:13 50.43629 7.82481 13048 ft 307 kts 148°
2026-05-05 18:13 50.41927 7.84484 12592 ft 305 kts 142°
2026-05-05 18:13 50.40272 7.86554 12148 ft 304 kts 142°
2026-05-05 18:13 50.38624 7.88602 11718 ft 301 kts 143°
2026-05-05 18:14 50.36989 7.90627 11297 ft 299 kts 143°
2026-05-05 18:14 50.35359 7.92647 10864 ft 298 kts 143°
2026-05-05 18:14 50.33736 7.94649 10456 ft 297 kts 143°
2026-05-05 18:14 50.32120 7.96640 10053 ft 295 kts 143°
2026-05-05 18:15 50.30521 7.98611 9831 ft 289 kts 144°
2026-05-05 18:15 50.28956 8.00543 9830 ft 286 kts 144°
2026-05-05 18:15 50.27408 8.02494 9833 ft 286 kts 139°
2026-05-05 18:15 50.26229 8.05004 9835 ft 290 kts 116°
2026-05-05 18:16 50.25758 8.08073 9840 ft 294 kts 96°
2026-05-05 18:16 50.25596 8.11266 9840 ft 295 kts 96°
2026-05-05 18:16 50.25444 8.14464 9842 ft 295 kts 96°
2026-05-05 18:16 50.25293 8.17657 9843 ft 295 kts 96°
2026-05-05 18:17 50.25137 8.20893 9802 ft 293 kts 96°
2026-05-05 18:17 50.24980 8.24055 9417 ft 292 kts 96°
2026-05-05 18:17 50.24822 8.27206 9013 ft 290 kts 96°
2026-05-05 18:17 50.24662 8.30336 8707 ft 289 kts 97°
2026-05-05 18:18 50.24501 8.33465 8448 ft 289 kts 97°
2026-05-05 18:18 50.24340 8.36586 8188 ft 288 kts 97°
2026-05-05 18:18 50.24180 8.39698 7927 ft 287 kts 97°
2026-05-05 18:18 50.24020 8.42797 7681 ft 286 kts 97°
2026-05-05 18:19 50.23859 8.45880 7400 ft 285 kts 97°
2026-05-05 18:19 50.23695 8.48961 7150 ft 284 kts 97°
2026-05-05 18:19 50.23531 8.52029 6903 ft 283 kts 97°
2026-05-05 18:19 50.23368 8.55082 6658 ft 282 kts 97°
2026-05-05 18:20 50.23208 8.58125 6414 ft 280 kts 97°
2026-05-05 18:20 50.23049 8.61121 6168 ft 274 kts 97°
2026-05-05 18:20 50.22899 8.64049 5910 ft 268 kts 94°
2026-05-05 18:20 50.23140 8.66909 5653 ft 265 kts 76°
2026-05-05 18:21 50.23654 8.69643 5398 ft 260 kts 74°
2026-05-05 18:21 50.24189 8.72318 5144 ft 255 kts 74°
2026-05-05 18:21 50.24596 8.74975 4894 ft 248 kts 91°
2026-05-05 18:21 50.24223 8.77512 4641 ft 238 kts 123°
2026-05-05 18:22 50.23103 8.79328 4388 ft 233 kts 149°
2026-05-05 18:22 50.21693 8.80545 4134 ft 231 kts 160°
2026-05-05 18:22 50.20190 8.81412 4014 ft 231 kts 163°
2026-05-05 18:22 50.18664 8.82221 4011 ft 232 kts 164°
2026-05-05 18:23 50.17132 8.83020 4012 ft 232 kts 164°
2026-05-05 18:23 50.15605 8.83817 4013 ft 231 kts 164°
2026-05-05 18:23 50.14049 8.84395 4009 ft 228 kts 182°
2026-05-05 18:23 50.12536 8.83805 4014 ft 229 kts 212°
2026-05-05 18:24 50.11432 8.82094 4008 ft 218 kts 242°
2026-05-05 18:24 50.10891 8.79993 4009 ft 199 kts 249°
2026-05-05 18:24 50.10437 8.78048 3854 ft 185 kts 250°
2026-05-05 18:24 50.10005 8.76210 3618 ft 176 kts 249°
2026-05-05 18:25 50.09590 8.74451 3398 ft 172 kts 250°
2026-05-05 18:25 50.09317 8.73298 3234 ft 171 kts 250°
2026-05-05 18:25 50.08769 8.70984 2910 ft 170 kts 250°
2026-05-05 18:25 50.08362 8.69264 2665 ft 169 kts 250°
2026-05-05 18:26 50.07955 8.67547 2426 ft 169 kts 250°
2026-05-05 18:26 50.07549 8.65836 2177 ft 168 kts 250°
2026-05-05 18:26 50.07161 8.64204 1951 ft 153 kts 250°
2026-05-05 18:26 50.06803 8.62699 1735 ft 145 kts 250°
2026-05-05 18:27 50.06458 8.61246 1530 ft 142 kts 250°
2026-05-05 18:27 50.06120 8.59819 1332 ft 140 kts 250°
2026-05-05 18:28 50.04809 8.54310 557 ft 142 kts 250°
2026-05-05 18:28 50.04462 8.52873 359 ft 139 kts 250°
2026-05-05 18:28 50.04192 8.51737 334 ft 72 kts 249°
2026-05-05 18:29 50.04080 8.51271 327 ft 27 kts 248°
2026-05-05 18:29 50.03982 8.51025 326 ft 26 kts 228°
2026-05-05 18:29 50.03899 8.50906 325 ft 14 kts 220°
2026-05-05 18:29 50.03829 8.50834 329 ft 9 kts 190°
2026-05-05 18:30 50.03787 8.50871 330 ft 8 kts 121°
2026-05-05 18:30 50.03793 8.50972 333 ft 12 kts 71°
2026-05-05 18:30 50.03827 8.51115 333 ft 16 kts 69°
2026-05-05 18:30 50.03866 8.51279 335 ft 17 kts 70°
2026-05-05 18:31 50.03913 8.51478 332 ft 21 kts 70°
2026-05-05 18:31 50.03965 8.51692 334 ft 22 kts 69°
2026-05-05 18:31 50.04017 8.51912 336 ft 22 kts 70°
2026-05-05 18:31 50.04070 8.52132 337 ft 21 kts 69°
2026-05-05 18:32 50.04121 8.52346 349 ft 21 kts 69°
2026-05-05 18:32 50.04171 8.52554 355 ft 20 kts 70°
2026-05-05 18:32 50.04218 8.52756 357 ft 20 kts 69°
2026-05-05 18:32 50.04267 8.52954 356 ft 19 kts 69°
2026-05-05 18:33 50.04314 8.53149 362 ft 18 kts 70°
2026-05-05 18:33 50.04355 8.53323 368 ft 16 kts 70°
2026-05-05 18:33 50.04391 8.53478 374 ft 14 kts 75°
2026-05-05 18:33 50.04403 8.53634 375 ft 15 kts 84°
2026-05-05 18:34 50.04414 8.53802 375 ft 16 kts 84°
2026-05-05 18:34 50.04426 8.53986 375 ft 18 kts 84°
2026-05-05 18:34 50.04439 8.54184 375 ft 19 kts 84°
2026-05-05 18:34 50.04453 8.54393 372 ft 18 kts 84°
2026-05-05 18:35 50.04443 8.54535 369 ft 14 kts 107°
2026-05-05 18:35 50.04424 8.54605 367 ft 0 kts 116°
2026-05-05 18:35 50.04423 8.54609 367 ft 1 kts 116°
2026-05-05 18:35 50.04411 8.54641 370 ft 6 kts 123°
2026-05-05 18:36 50.04370 8.54715 367 ft 11 kts 137°
2026-05-05 18:36 50.04302 8.54778 360 ft 13 kts 158°
2026-05-05 18:36 50.04197 8.54835 354 ft 18 kts 161°
2026-05-05 18:36 50.04081 8.54901 354 ft 15 kts 159°
2026-05-05 18:37 50.03990 8.54957 354 ft 7 kts 158°
2026-05-05 18:37 50.03971 8.54969 356 ft 0 kts 159°
2026-05-05 18:38 50.03953 8.54979 356 ft 7 kts 160°
2026-05-05 18:38 50.03891 8.55015 356 ft 12 kts 160°
2026-05-05 18:39 50.03844 8.55084 351 ft 10 kts 89°
2026-05-05 18:39 50.03868 8.55195 356 ft 11 kts 69°
2026-05-05 18:39 50.03898 8.55322 352 ft 14 kts 70°
2026-05-05 18:39 50.03934 8.55473 354 ft 16 kts 69°
2026-05-05 18:40 50.03976 8.55651 352 ft 18 kts 70°
2026-05-05 18:40 50.04009 8.55786 355 ft 3 kts 69°
2026-05-05 18:40 50.04010 8.55787 356 ft 0 kts 69°
2026-05-05 18:44 50.04010 8.55788 350 ft 0 kts 69°
2026-05-05 18:44 50.04018 8.55824 352 ft 9 kts 69°
2026-05-05 18:44 50.04041 8.55921 354 ft 9 kts 70°
2026-05-05 18:45 50.04072 8.55976 358 ft 5 kts 21°
2026-05-05 18:45 50.04095 8.55971 355 ft 3 kts 339°
2026-05-05 18:45 50.04119 8.55958 357 ft 4 kts 340°
2026-05-05 18:45 50.04152 8.55938 355 ft 5 kts 339°
2026-05-05 18:46 50.04158 8.55934 355 ft 0 kts 339°
2026-05-05 18:47 50.04163 8.55931 354 ft 2 kts 339°
2026-05-05 18:47 50.04182 8.55920 354 ft 4 kts 340°
2026-05-05 18:47 50.04214 8.55909 357 ft 5 kts
2026-05-05 18:47 50.04247 8.55956 359 ft 7 kts 42°
2026-05-05 18:48 50.04293 8.55958 358 ft 7 kts 338°
2026-05-05 18:48 50.04342 8.55929 362 ft 8 kts 341°
2026-05-05 18:48 50.04406 8.55908 360 ft 11 kts
2026-05-05 18:48 50.04487 8.55937 356 ft 12 kts 17°
2026-05-05 18:49 50.04557 8.55985 361 ft 10 kts 48°
2026-05-05 18:49 50.04587 8.56106 359 ft 14 kts 70°
2026-05-05 18:49 50.04626 8.56267 356 ft 17 kts 69°
2026-05-05 18:49 50.04664 8.56424 362 ft 15 kts 69°
2026-05-05 18:50 50.04704 8.56553 362 ft 12 kts 51°
2026-05-05 18:50 50.04756 8.56655 360 ft 11 kts 43°
2026-05-05 18:50 50.04801 8.56693 361 ft 2 kts 47°
2026-05-05 18:50 50.04800 8.56718 362 ft 3 kts 113°
2026-05-05 18:51 50.04792 8.56748 356 ft 3 kts 114°
2026-05-05 18:51 50.04787 8.56764 363 ft 1 kts 114°
2026-05-05 18:51 50.04785 8.56772 362 ft 0 kts 113°